User: anonymous   Login
Location: Unspecified
(0.0000°N, 0.0000°E)
Time: 18:11:28
(UTC+00:00)
Language:

ARSAT 1 - Orbit

View from above orbital plane
View from above orbital plane
View from above satellite
View from above satellite

Ground track
Ground track

The orbit is defined by the following mean orbital elements,

1 40272U          26145.49823830 +.00000000 +00000-0 +00000-0 0 00003
2 40272   0.0498  76.5753 0001838 337.6402 296.4286  1.00271173    05
Epoch (UTC): 25 May 2026 11:57:27
Eccentricity: 0.0001838
inclination: 0.0498°
perigee height: 35779 km
apogee height: 35795 km
right ascension of ascending node: 76.5753°
argument of perigee: 337.6402°
revolutions per day: 1.00271173
mean anomaly at epoch: 296.4286°

The dashed part of the orbit path shows where the satellite is in the earth's shadow,  

DLR